Content
SEND FEEDBACK

Mexico Flag

MORELIA, MICHOACAN


Home > North America > Mexico > Michoacan
Elevation: 6275 feet     Latitude: 19 42N     Longitude: 101 11W

WEATHER
 
SELECT A DAY
Number of Records: 167,776;   Date Range: 1/1/95 - 3/22/16
 
SHARE

PRINT THIS DATA

[ ← Previous Day ]
WEATHER ALMANAC - APRIL 30, 2013
[ Next Day → ]
[ °C ]   °F
Weather ElementAverageHighLow
Temperature67.2 °F87 °F (3:50 pm)48.2 °F (5:51 am)
Dewpoint36.6 °F53 °F (3:50 pm)30.2 °F (11:40 am)
Humidity33.4 %62 % (5:51 am)11 % (12:45 pm)
Barometer29.89 in30.16 in (11:42 pm)29.56 in (6:50 pm)
Wind Speed4.6 mph17.3 mph (5:43 pm)
Weather ElementAverage
Visibility6.4 mi
Wind DirectionESE (123.5 °)

Weather ElementTotal
Precipitation---
Cooling Degree Days2.6 (Base 65)
Growing Degree Days17.6 (Base 50)
Averaged from 31 records on April 30, 2013
WEATHER CONDITIONS BREAKOUT
WIND DIRECTION BREAKOUT
WEATHER BY HOUR - APRIL 30, 2013
[ °C ]   °F
Local TimeTemperatureDewpointHumidityBarometerVisibilityWind DirectionWind SpeedGust SpeedPrecipitationEventsConditions
12:45 AM57.2 °F33.8 °F41 %29.65 in7.0 miWSW (250°)3.5 mphClear
1:42 AM55.4 °F35.6 °F47 %30.08 in7.0 miCalmClear
2:43 AM53.6 °F35.6 °F51 %30.07 in7.0 miCalmClear
3:55 AM59.0 °F43.0 °F44 %29.62 in5.0 miSSE (160°)2.2 mph
3:55 AM55.4 °F35.6 °F47 %29.64 in7.0 miCalmClear
4:43 AM53.6 °F35.6 °F51 %30.06 in7.0 miCalmClear
5:51 AM48.2 °F35.6 °F62 %30.08 in7.0 miCalmScattered Clouds
6:45 AM50.0 °F35.6 °F58 %29.69 in7.0 miCalmPartly Cloudy
7:00 AM54.0 °F42.0 °F52 %29.74 in5.0 miSSE (160°)2.2 mph
7:40 AM48.2 °F35.6 °F62 %30.11 in7.0 miCalmPartly Cloudy
8:40 AM55.4 °F39.2 °F54 %30.13 in7.0 miCalmScattered Clouds
9:40 AM62.6 °F39.2 °F42 %29.74 in7.0 miCalmScattered Clouds
9:55 AM67.0 °F44.0 °F33 %29.84 in6.0 miSSW (210°)2.2 mphPartly Cloudy
10:57 AM69.8 °F39.2 °F33 %30.15 in7.0 miCalmScattered Clouds
11:40 AM75.2 °F30.2 °F19 %30.14 in7.0 miWest (280°)10.4 mphMostly Cloudy
12:45 PM83.0 °F38.0 °F11 %29.77 in6.0 miESE (120°)2.2 mphPartly Cloudy
12:52 PM77.0 °F35.6 °F22 %29.71 in7.0 miSSE (150°)4.6 mphMostly Cloudy
1:58 PM78.8 °F35.6 °F21 %30.09 in7.0 miEast (80°)4.6 mphMostly Cloudy
2:43 PM82.4 °F35.6 °F19 %30.07 in6.0 miSouth (170°)11.5 mphMostly Cloudy
3:47 PM82.4 °F35.6 °F19 %29.74 in6.0 miSouth (190°)10.4 mphMostly Cloudy
3:50 PM87.0 °F53.0 °F21 %29.61 in7.0 miESE (120°)2.2 mphPartly Cloudy
4:46 PM80.6 °F33.8 °F18 %30.03 in6.0 miSSW (210°)12.7 mphMostly Cloudy
5:43 PM80.6 °F35.6 °F20 %30.03 in6.0 miSouth (180°)17.3 mphMostly Cloudy
6:46 PM77.0 °F33.8 °F21 %29.66 in6.0 miSouth (180°)13.8 mphMostly Cloudy
6:50 PM81.0 °F44.0 °F17 %29.56 in6.0 miSouth (180°)2.2 mphPartly Cloudy
7:46 PM73.4 °F30.2 °F20 %30.06 in6.0 miSSE (160°)10.4 mphMostly Cloudy
8:41 PM68.0 °F32.0 °F26 %30.08 in6.0 miSouth (170°)10.4 mphMostly Cloudy
9:44 PM68.0 °F30.2 °F24 %29.68 in6.0 miSouth (190°)6.9 mphMostly Cloudy
9:45 PM69.0 °F41.0 °F25 %29.58 in5.0 miSSW (210°)2.2 mph
10:42 PM64.4 °F30.2 °F28 %30.13 in6.0 miSW (230°)5.8 mphMostly Cloudy
11:42 PM66.2 °F32.0 °F28 %30.16 in6.0 miSW (230°)5.8 mphMostly Cloudy
Hourly data recorded from MMMM, located miles away from Morelia, Michoacan




STORIES FROM OUR PARTNERS